sat.trackr.live / text

‹ back to catalog

STARLINK-35153

NORAD 65625 · 2025-210D

PAYLOAD ACTIVE UNKNOWN

§ Identity

Operator
Country
US
Launch date
2025-09-18
Launch site
AFETR
Launch vehicle
Mass (kg)
RCS (m²)

Purposes: comms

External: N2YO · Heavens-Above · Gunter

§ Orbital elements

Epoch: 2026-05-24T21:09:36.988704Z

Period
93.85 min
Inclination
53.1597°
Eccentricity
0.0001126
Mean motion
15.34400533 rev/d
Perigee alt
461.9 km
Apogee alt
463.5 km
Semi-major
6,840.8 km
B*
1.1012e-3
RAAN
311.9560°
Arg perigee
85.0422°
Mean anomaly
275.0709°
Rev number
3,933

§ Raw data

STARLINK-351531 65625U 25210D   26144.88167811  .00037014  00000+0  11012-2 0  99922 65625  53.1597 311.9560 0001126  85.0422 275.0709 15.34400533 39338

JSON: /api/v1/satellites/65625 · /tle

For live sub-satellite position, see the globe view (requires WebGL).

§ Visibility from observer

Set your observer location to see the next 7 days of passes ≥ 10°. The values pass through the URL so the page stays shareable.

No JS? Fill the form by hand. The geolocation button needs JavaScript.